Time,TemperatureF,DewpointF,PressureIn,WindDirection,WindDirectionDegrees,WindSpeedMPH,WindSpeedGustMPH,Humidity,HourlyPrecipIn,Conditions,Clouds,dailyrainin,SoftwareType,DateUTC
2013-02-10 00:00:00,28.0,21.1,30.41,SE,144,0.0,0.0,75,0.00,,,0.00,HR-IXPWINDi_r2_v1.2.,2013-02-10 05:00:00,
2013-02-10 00:05:00,27.9,21.0,30.41,SE,144,0.0,1.0,75,0.00,,,0.00,HR-IXPWINDi_r2_v1.2.,2013-02-10 05:05:00,
2013-02-10 00:10:00,28.0,21.4,30.42,SE,144,0.0,2.0,76,0.00,,,0.00,HR-IXPWINDi_r2_v1.2.,2013-02-10 05:10:00,
2013-02-10 00:15:00,28.0,21.7,30.42,SE,144,0.0,2.0,77,0.00,,,0.00,HR-IXPWINDi_r2_v1.2.,2013-02-10 05:15:00,
2013-02-10 00:20:00,27.9,21.6,30.42,SE,144,0.0,0.0,77,0.00,,,0.00,HR-IXPWINDi_r2_v1.2.,2013-02-10 05:20:00,
2013-02-10 00:25:00,27.7,21.4,30.42,SE,144,0.0,0.0,77,0.00,,,0.00,HR-IXPWINDi_r2_v1.2.,2013-02-10 05:25:00,
2013-02-10 00:31:00,27.6,20.7,30.42,SE,144,0.0,1.0,75,0.00,,,0.00,HR-IXPWINDi_r2_v1.2.,2013-02-10 05:31:00,
2013-02-10 00:36:00,27.5,20.6,30.42,SE,144,0.0,1.0,75,0.00,,,0.00,HR-IXPWINDi_r2_v1.2.,2013-02-10 05:36:00,
2013-02-10 00:41:00,27.4,20.5,30.42,SE,144,0.0,0.0,75,0.00,,,0.00,HR-IXPWINDi_r2_v1.2.,2013-02-10 05:41:00,
2013-02-10 00:46:00,27.4,20.2,30.42,SE,144,0.0,0.0,74,0.00,,,0.00,HR-IXPWINDi_r2_v1.2.,2013-02-10 05:46:00,
2013-02-10 00:51:00,27.3,20.7,30.42,SE,144,0.0,0.0,76,0.00,,,0.00,HR-IXPWINDi_r2_v1.2.,2013-02-10 05:51:00,
2013-02-10 00:56:00,27.3,21.1,30.42,SE,144,0.0,0.0,77,0.00,,,0.00,HR-IXPWINDi_r2_v1.2.,2013-02-10 05:56:00,
2013-02-10 01:02:00,27.1,20.6,30.42,SE,144,0.0,0.0,76,0.00,,,0.00,HR-IXPWINDi_r2_v1.2.,2013-02-10 06:02:00,
2013-02-10 01:07:00,26.9,21.0,30.42,SE,144,0.0,0.0,78,0.00,,,0.00,HR-IXPWINDi_r2_v1.2.,2013-02-10 06:07:00,
2013-02-10 01:12:00,26.7,21.1,30.42,SE,144,0.0,0.0,79,0.00,,,0.00,HR-IXPWINDi_r2_v1.2.,2013-02-10 06:12:00,
2013-02-10 01:17:00,26.5,20.6,30.42,SE,144,0.0,0.0,78,0.00,,,0.00,HR-IXPWINDi_r2_v1.2.,2013-02-10 06:17:00,
2013-02-10 01:22:00,26.3,20.1,30.42,SE,144,0.0,0.0,77,0.00,,,0.00,HR-IXPWINDi_r2_v1.2.,2013-02-10 06:22:00,
2013-02-10 01:27:00,26.1,19.9,30.42,SE,144,0.0,0.0,77,0.00,,,0.00,HR-IXPWINDi_r2_v1.2.,2013-02-10 06:27:00,
2013-02-10 01:32:00,26.0,20.1,30.42,SE,144,0.0,0.0,78,0.00,,,0.00,HR-IXPWINDi_r2_v1.2.,2013-02-10 06:32:00,
2013-02-10 01:38:00,25.9,19.7,30.42,SE,144,0.0,1.0,77,0.00,,,0.00,HR-IXPWINDi_r2_v1.2.,2013-02-10 06:38:00,
2013-02-10 01:43:00,25.9,20.0,30.42,SE,144,0.0,1.0,78,0.00,,,0.00,HR-IXPWINDi_r2_v1.2.,2013-02-10 06:43:00,
2013-02-10 01:48:00,25.8,19.9,30.42,SE,144,0.0,0.0,78,0.00,,,0.00,HR-IXPWINDi_r2_v1.2.,2013-02-10 06:48:00,
2013-02-10 01:54:00,25.8,20.2,30.42,SE,144,0.0,0.0,79,0.00,,,0.00,HR-IXPWINDi_r2_v1.2.,2013-02-10 06:54:00,
2013-02-10 01:59:00,25.7,19.8,30.43,SE,144,0.0,0.0,78,0.00,,,0.00,HR-IXPWINDi_r2_v1.2.,2013-02-10 06:59:00,
2013-02-10 02:04:00,25.6,19.7,30.43,SE,144,0.0,0.0,78,0.00,,,0.00,HR-IXPWINDi_r2_v1.2.,2013-02-10 07:04:00,
2013-02-10 02:09:00,25.5,20.2,30.43,SE,144,0.0,0.0,80,0.00,,,0.00,HR-IXPWINDi_r2_v1.2.,2013-02-10 07:09:00,
2013-02-10 02:14:00,25.3,19.7,30.43,SE,144,0.0,0.0,79,0.00,,,0.00,HR-IXPWINDi_r2_v1.2.,2013-02-10 07:14:00,
2013-02-10 02:19:00,25.2,19.6,30.44,SE,144,0.0,0.0,79,0.00,,,0.00,HR-IXPWINDi_r2_v1.2.,2013-02-10 07:19:00,
2013-02-10 02:25:00,25.0,19.7,30.43,SE,144,0.0,0.0,80,0.00,,,0.00,HR-IXPWINDi_r2_v1.2.,2013-02-10 07:25:00,
2013-02-10 02:30:00,24.9,19.6,30.44,SE,144,0.0,0.0,80,0.00,,,0.00,HR-IXPWINDi_r2_v1.2.,2013-02-10 07:30:00,
2013-02-10 02:35:00,24.9,19.3,30.44,SE,144,0.0,0.0,79,0.00,,,0.00,HR-IXPWINDi_r2_v1.2.,2013-02-10 07:35:00,
2013-02-10 02:40:00,25.0,19.4,30.44,SE,144,0.0,0.0,79,0.00,,,0.00,HR-IXPWINDi_r2_v1.2.,2013-02-10 07:40:00,
2013-02-10 02:46:00,25.1,19.8,30.44,SE,144,0.0,0.0,80,0.00,,,0.00,HR-IXPWINDi_r2_v1.2.,2013-02-10 07:46:00,
2013-02-10 02:51:00,25.0,19.7,30.44,SE,144,0.0,0.0,80,0.00,,,0.00,HR-IXPWINDi_r2_v1.2.,2013-02-10 07:51:00,
2013-02-10 02:56:00,25.0,19.1,30.44,SE,144,0.0,0.0,78,0.00,,,0.00,HR-IXPWINDi_r2_v1.2.,2013-02-10 07:56:00,
2013-02-10 03:01:00,25.1,19.8,30.43,SE,144,0.0,0.0,80,0.00,,,0.00,HR-IXPWINDi_r2_v1.2.,2013-02-10 08:01:00,
2013-02-10 03:06:00,25.1,19.8,30.44,SE,144,0.0,0.0,80,0.00,,,0.00,HR-IXPWINDi_r2_v1.2.,2013-02-10 08:06:00,
2013-02-10 03:12:00,25.1,19.8,30.44,SE,144,0.0,0.0,80,0.00,,,0.00,HR-IXPWINDi_r2_v1.2.,2013-02-10 08:12:00,
2013-02-10 03:17:00,25.2,19.9,30.44,SE,144,0.0,0.0,80,0.00,,,0.00,HR-IXPWINDi_r2_v1.2.,2013-02-10 08:17:00,
2013-02-10 03:22:00,25.3,19.7,30.45,SE,144,0.0,1.0,79,0.00,,,0.00,HR-IXPWINDi_r2_v1.2.,2013-02-10 08:22:00,
2013-02-10 03:27:00,25.3,20.0,30.44,SE,144,0.0,1.0,80,0.00,,,0.00,HR-IXPWINDi_r2_v1.2.,2013-02-10 08:27:00,
2013-02-10 03:32:00,25.3,19.7,30.45,SE,144,0.0,0.0,79,0.00,,,0.00,HR-IXPWINDi_r2_v1.2.,2013-02-10 08:32:00,
2013-02-10 03:37:00,25.1,20.4,30.44,SE,144,0.0,0.0,82,0.00,,,0.00,HR-IXPWINDi_r2_v1.2.,2013-02-10 08:37:00,
2013-02-10 03:42:00,24.9,19.6,30.45,SE,144,0.0,0.0,80,0.00,,,0.00,HR-IXPWINDi_r2_v1.2.,2013-02-10 08:42:00,
2013-02-10 03:48:00,24.9,19.6,30.45,SE,144,0.0,0.0,80,0.00,,,0.00,HR-IXPWINDi_r2_v1.2.,2013-02-10 08:48:00,
2013-02-10 03:53:00,24.7,19.7,30.45,SE,144,0.0,0.0,81,0.00,,,0.00,HR-IXPWINDi_r2_v1.2.,2013-02-10 08:53:00,
2013-02-10 03:58:00,24.6,19.3,30.45,SE,144,0.0,0.0,80,0.00,,,0.00,HR-IXPWINDi_r2_v1.2.,2013-02-10 08:58:00,
2013-02-10 04:03:00,24.4,19.1,30.45,SE,144,0.0,0.0,80,0.00,,,0.00,HR-IXPWINDi_r2_v1.2.,2013-02-10 09:03:00,
2013-02-10 04:09:00,24.3,19.0,30.45,SE,144,0.0,0.0,80,0.00,,,0.00,HR-IXPWINDi_r2_v1.2.,2013-02-10 09:09:00,
2013-02-10 04:14:00,24.4,19.1,30.45,SE,144,0.0,0.0,80,0.00,,,0.00,HR-IXPWINDi_r2_v1.2.,2013-02-10 09:14:00,
2013-02-10 04:19:00,24.4,19.1,30.45,SE,144,0.0,0.0,80,0.00,,,0.00,HR-IXPWINDi_r2_v1.2.,2013-02-10 09:19:00,
2013-02-10 04:24:00,24.4,19.4,30.45,SE,144,0.0,0.0,81,0.00,,,0.00,HR-IXPWINDi_r2_v1.2.,2013-02-10 09:24:00,
2013-02-10 04:29:00,24.4,19.1,30.45,SE,144,0.0,0.0,80,0.00,,,0.00,HR-IXPWINDi_r2_v1.2.,2013-02-10 09:29:00,
2013-02-10 04:35:00,24.5,19.5,30.45,SE,146,0.0,2.0,81,0.00,,,0.00,HR-IXPWINDi_r2_v1.2.,2013-02-10 09:35:00,
2013-02-10 04:40:00,24.5,19.5,30.46,SE,146,0.0,2.0,81,0.00,,,0.00,HR-IXPWINDi_r2_v1.2.,2013-02-10 09:40:00,
2013-02-10 04:45:00,24.6,19.9,30.46,SE,146,0.0,0.0,82,0.00,,,0.00,HR-IXPWINDi_r2_v1.2.,2013-02-10 09:45:00,
2013-02-10 04:50:00,24.5,19.8,30.46,SE,146,0.0,0.0,82,0.00,,,0.00,HR-IXPWINDi_r2_v1.2.,2013-02-10 09:50:00,
2013-02-10 04:55:00,24.4,19.7,30.46,SE,146,0.0,0.0,82,0.00,,,0.00,HR-IXPWINDi_r2_v1.2.,2013-02-10 09:55:00,
2013-02-10 05:00:00,24.3,19.9,30.46,SE,146,0.0,0.0,83,0.00,,,0.00,HR-IXPWINDi_r2_v1.2.,2013-02-10 10:00:00,
2013-02-10 05:06:00,24.1,19.7,30.46,SE,146,0.0,0.0,83,0.00,,,0.00,HR-IXPWINDi_r2_v1.2.,2013-02-10 10:06:00,
2013-02-10 05:11:00,24.1,19.7,30.46,SE,146,0.0,1.0,83,0.00,,,0.00,HR-IXPWINDi_r2_v1.2.,2013-02-10 10:11:00,
2013-02-10 05:16:00,24.0,19.6,30.46,SE,146,0.0,1.0,83,0.00,,,0.00,HR-IXPWINDi_r2_v1.2.,2013-02-10 10:16:00,
2013-02-10 05:21:00,24.0,19.6,30.47,SE,146,0.0,0.0,83,0.00,,,0.00,HR-IXPWINDi_r2_v1.2.,2013-02-10 10:21:00,
2013-02-10 05:26:00,23.9,19.8,30.46,SE,146,0.0,0.0,84,0.00,,,0.00,HR-IXPWINDi_r2_v1.2.,2013-02-10 10:26:00,
2013-02-10 05:31:00,23.9,19.5,30.46,SE,146,0.0,0.0,83,0.00,,,0.00,HR-IXPWINDi_r2_v1.2.,2013-02-10 10:31:00,
2013-02-10 05:37:00,23.9,19.5,30.47,SE,146,0.0,0.0,83,0.00,,,0.00,HR-IXPWINDi_r2_v1.2.,2013-02-10 10:37:00,
2013-02-10 05:42:00,24.2,19.8,30.47,SE,146,0.0,0.0,83,0.00,,,0.00,HR-IXPWINDi_r2_v1.2.,2013-02-10 10:42:00,
2013-02-10 05:47:00,24.3,19.9,30.47,SE,146,0.0,0.0,83,0.00,,,0.00,HR-IXPWINDi_r2_v1.2.,2013-02-10 10:47:00,
2013-02-10 05:52:00,24.6,20.5,30.47,SE,146,0.0,0.0,84,0.00,,,0.00,HR-IXPWINDi_r2_v1.2.,2013-02-10 10:52:00,
2013-02-10 05:57:00,24.8,20.7,30.47,SE,146,0.0,0.0,84,0.00,,,0.00,HR-IXPWINDi_r2_v1.2.,2013-02-10 10:57:00,
2013-02-10 06:02:00,24.9,21.0,30.47,SE,146,0.0,0.0,85,0.00,,,0.00,HR-IXPWINDi_r2_v1.2.,2013-02-10 11:02:00,
2013-02-10 06:08:00,25.0,20.9,30.47,SE,146,0.0,0.0,84,0.00,,,0.00,HR-IXPWINDi_r2_v1.2.,2013-02-10 11:08:00,
2013-02-10 06:13:00,25.1,21.0,30.47,SE,146,0.0,0.0,84,0.00,,,0.00,HR-IXPWINDi_r2_v1.2.,2013-02-10 11:13:00,
2013-02-10 06:18:00,25.2,21.3,30.48,SE,146,0.0,0.0,85,0.00,,,0.00,HR-IXPWINDi_r2_v1.2.,2013-02-10 11:18:00,
2013-02-10 06:23:00,25.3,21.7,30.48,SE,146,0.0,0.0,86,0.00,,,0.00,HR-IXPWINDi_r2_v1.2.,2013-02-10 11:23:00,
2013-02-10 06:28:00,25.3,21.4,30.48,SE,146,0.0,0.0,85,0.00,,,0.00,HR-IXPWINDi_r2_v1.2.,2013-02-10 11:28:00,
2013-02-10 06:34:00,25.2,20.8,30.49,SE,146,0.0,0.0,83,0.00,,,0.00,HR-IXPWINDi_r2_v1.2.,2013-02-10 11:34:00,
2013-02-10 06:39:00,25.3,20.9,30.49,SE,146,0.0,0.0,83,0.00,,,0.00,HR-IXPWINDi_r2_v1.2.,2013-02-10 11:39:00,
2013-02-10 06:44:00,25.5,21.3,30.49,SE,146,0.0,0.0,84,0.00,,,0.00,HR-IXPWINDi_r2_v1.2.,2013-02-10 11:44:00,
2013-02-10 06:49:00,25.7,21.5,30.49,SE,146,0.0,0.0,84,0.00,,,0.00,HR-IXPWINDi_r2_v1.2.,2013-02-10 11:49:00,
2013-02-10 06:54:00,25.8,21.4,30.49,SE,146,0.0,0.0,83,0.00,,,0.00,HR-IXPWINDi_r2_v1.2.,2013-02-10 11:54:00,
2013-02-10 06:59:00,25.9,21.7,30.50,SE,146,0.0,0.0,84,0.00,,,0.00,HR-IXPWINDi_r2_v1.2.,2013-02-10 11:59:00,
2013-02-10 07:05:00,26.1,21.9,30.50,SE,146,0.0,0.0,84,0.00,,,0.00,HR-IXPWINDi_r2_v1.2.,2013-02-10 12:05:00,
2013-02-10 07:10:00,26.1,21.9,30.51,SE,146,0.0,0.0,84,0.00,,,0.00,HR-IXPWINDi_r2_v1.2.,2013-02-10 12:10:00,
2013-02-10 07:15:00,26.1,21.4,30.51,SE,146,0.0,0.0,82,0.00,,,0.00,HR-IXPWINDi_r2_v1.2.,2013-02-10 12:15:00,
2013-02-10 07:20:00,26.2,21.2,30.51,SE,146,0.0,0.0,81,0.00,,,0.00,HR-IXPWINDi_r2_v1.2.,2013-02-10 12:20:00,
2013-02-10 07:25:00,26.3,21.3,30.51,SE,146,0.0,0.0,81,0.00,,,0.00,HR-IXPWINDi_r2_v1.2.,2013-02-10 12:25:00,
2013-02-10 07:30:00,26.6,22.1,30.51,SE,146,0.0,0.0,83,0.00,,,0.00,HR-IXPWINDi_r2_v1.2.,2013-02-10 12:30:00,
2013-02-10 07:35:00,26.7,21.9,30.51,SE,146,0.0,0.0,82,0.00,,,0.00,HR-IXPWINDi_r2_v1.2.,2013-02-10 12:35:00,
2013-02-10 07:41:00,26.9,22.4,30.52,SE,146,0.0,0.0,83,0.00,,,0.00,HR-IXPWINDi_r2_v1.2.,2013-02-10 12:41:00,
2013-02-10 07:46:00,27.1,22.6,30.52,SE,146,0.0,0.0,83,0.00,,,0.00,HR-IXPWINDi_r2_v1.2.,2013-02-10 12:46:00,
2013-02-10 07:51:00,27.2,23.0,30.52,SE,146,0.0,0.0,84,0.00,,,0.00,HR-IXPWINDi_r2_v1.2.,2013-02-10 12:51:00,
2013-02-10 07:56:00,27.4,21.8,30.52,SE,146,0.0,0.0,79,0.00,,,0.00,HR-IXPWINDi_r2_v1.2.,2013-02-10 12:56:00,
2013-02-10 08:01:00,27.6,22.8,30.52,SE,146,0.0,0.0,82,0.00,,,0.00,HR-IXPWINDi_r2_v1.2.,2013-02-10 13:01:00,
2013-02-10 08:06:00,27.8,22.7,30.52,SE,146,0.0,0.0,81,0.00,,,0.00,HR-IXPWINDi_r2_v1.2.,2013-02-10 13:06:00,
2013-02-10 08:12:00,28.0,23.8,30.52,SE,146,0.0,0.0,84,0.00,,,0.00,HR-IXPWINDi_r2_v1.2.,2013-02-10 13:12:00,
2013-02-10 08:17:00,28.2,23.4,30.52,SE,146,0.0,0.0,82,0.00,,,0.00,HR-IXPWINDi_r2_v1.2.,2013-02-10 13:17:00,
2013-02-10 08:22:00,28.4,23.6,30.53,SE,146,0.0,0.0,82,0.00,,,0.00,HR-IXPWINDi_r2_v1.2.,2013-02-10 13:22:00,
2013-02-10 08:27:00,28.6,24.1,30.53,SE,146,0.0,0.0,83,0.00,,,0.00,HR-IXPWINDi_r2_v1.2.,2013-02-10 13:27:00,
2013-02-10 08:32:00,28.8,24.0,30.53,SE,146,0.0,0.0,82,0.00,,,0.00,HR-IXPWINDi_r2_v1.2.,2013-02-10 13:32:00,
2013-02-10 08:37:00,29.1,24.3,30.53,SE,146,0.0,0.0,82,0.00,,,0.00,HR-IXPWINDi_r2_v1.2.,2013-02-10 13:37:00,
2013-02-10 08:43:00,29.4,24.9,30.52,SE,146,0.0,0.0,83,0.00,,,0.00,HR-IXPWINDi_r2_v1.2.,2013-02-10 13:43:00,
2013-02-10 08:48:00,29.6,24.2,30.53,SE,146,0.0,0.0,80,0.00,,,0.00,HR-IXPWINDi_r2_v1.2.,2013-02-10 13:48:00,
2013-02-10 08:53:00,29.9,23.9,30.53,SE,146,0.0,0.0,78,0.00,,,0.00,HR-IXPWINDi_r2_v1.2.,2013-02-10 13:53:00,
2013-02-10 08:58:00,30.3,24.3,30.53,SE,146,0.0,0.0,78,0.00,,,0.00,HR-IXPWINDi_r2_v1.2.,2013-02-10 13:58:00,
2013-02-10 09:03:00,30.6,24.2,30.53,SE,146,0.0,0.0,77,0.00,,,0.00,HR-IXPWINDi_r2_v1.2.,2013-02-10 14:03:00,
2013-02-10 09:08:00,31.1,24.7,30.53,SE,146,0.0,1.0,77,0.00,,,0.00,HR-IXPWINDi_r2_v1.2.,2013-02-10 14:08:00,
2013-02-10 09:13:00,31.5,21.8,30.52,SE,140,0.0,1.0,67,0.00,,,0.00,HR-IXPWINDi_r2_v1.2.,2013-02-10 14:13:00,
2013-02-10 09:19:00,31.8,21.4,30.52,SE,140,0.0,1.0,65,0.00,,,0.00,HR-IXPWINDi_r2_v1.2.,2013-02-10 14:19:00,
2013-02-10 09:24:00,32.0,21.6,30.52,SE,140,0.0,2.0,65,0.00,,,0.00,HR-IXPWINDi_r2_v1.2.,2013-02-10 14:24:00,
2013-02-10 09:29:00,32.1,21.7,30.52,SE,140,0.0,2.0,65,0.00,,,0.00,HR-IXPWINDi_r2_v1.2.,2013-02-10 14:29:00,
2013-02-10 09:34:00,32.3,21.9,30.52,SE,140,1.0,2.0,65,0.00,,,0.00,HR-IXPWINDi_r2_v1.2.,2013-02-10 14:34:00,
2013-02-10 09:39:00,32.4,22.3,30.52,SE,140,0.0,2.0,66,0.00,,,0.00,HR-IXPWINDi_r2_v1.2.,2013-02-10 14:39:00,
2013-02-10 09:44:00,32.6,21.8,30.53,SE,140,0.0,2.0,64,0.00,,,0.00,HR-IXPWINDi_r2_v1.2.,2013-02-10 14:44:00,
2013-02-10 09:49:00,32.8,21.2,30.52,SE,140,0.0,2.0,62,0.00,,,0.00,HR-IXPWINDi_r2_v1.2.,2013-02-10 14:49:00,
2013-02-10 09:55:00,32.9,21.3,30.52,SE,132,0.0,2.0,62,0.00,,,0.00,HR-IXPWINDi_r2_v1.2.,2013-02-10 14:55:00,
2013-02-10 10:00:00,33.1,21.9,30.52,SE,132,1.0,2.0,63,0.00,,,0.00,HR-IXPWINDi_r2_v1.2.,2013-02-10 15:00:00,
2013-02-10 10:05:00,33.3,22.1,30.52,SE,132,0.0,2.0,63,0.00,,,0.00,HR-IXPWINDi_r2_v1.2.,2013-02-10 15:05:00,
2013-02-10 10:10:00,33.5,22.3,30.52,SE,132,0.0,1.0,63,0.00,,,0.00,HR-IXPWINDi_r2_v1.2.,2013-02-10 15:10:00,
2013-02-10 10:15:00,33.8,22.2,30.51,SE,132,0.0,2.0,62,0.00,,,0.00,HR-IXPWINDi_r2_v1.2.,2013-02-10 15:15:00,
2013-02-10 10:20:00,34.0,22.3,30.51,NE,51,3.0,3.0,62,0.00,,,0.00,HR-IXPWINDi_r2_v1.2.,2013-02-10 15:20:00,
2013-02-10 10:26:00,34.1,22.4,30.51,East,80,0.0,3.0,62,0.00,,,0.00,HR-IXPWINDi_r2_v1.2.,2013-02-10 15:26:00,
2013-02-10 10:31:00,34.3,22.6,30.51,East,79,0.0,3.0,62,0.00,,,0.00,HR-IXPWINDi_r2_v1.2.,2013-02-10 15:31:00,
2013-02-10 10:36:00,34.7,23.0,30.50,East,84,1.0,2.0,62,0.00,,,0.00,HR-IXPWINDi_r2_v1.2.,2013-02-10 15:36:00,
2013-02-10 10:41:00,35.2,22.7,30.50,East,90,1.0,2.0,60,0.00,,,0.00,HR-IXPWINDi_r2_v1.2.,2013-02-10 15:41:00,
2013-02-10 10:46:00,35.7,22.8,30.50,ESE,110,0.0,2.0,59,0.00,,,0.00,HR-IXPWINDi_r2_v1.2.,2013-02-10 15:46:00,
2013-02-10 10:51:00,36.0,22.2,30.50,ESE,110,1.0,2.0,57,0.00,,,0.00,HR-IXPWINDi_r2_v1.2.,2013-02-10 15:51:00,
2013-02-10 10:57:00,36.5,22.3,30.50,East,86,3.0,3.0,56,0.00,,,0.00,HR-IXPWINDi_r2_v1.2.,2013-02-10 15:57:00,
2013-02-10 11:02:00,36.9,22.7,30.50,East,101,0.0,3.0,56,0.00,,,0.00,HR-IXPWINDi_r2_v1.2.,2013-02-10 16:02:00,
2013-02-10 11:07:00,37.6,23.7,30.50,ESE,119,1.0,3.0,57,0.00,,,0.00,HR-IXPWINDi_r2_v1.2.,2013-02-10 16:07:00,
2013-02-10 11:12:00,38.1,21.1,30.49,East,84,0.0,3.0,50,0.00,,,0.00,HR-IXPWINDi_r2_v1.2.,2013-02-10 16:12:00,
2013-02-10 11:17:00,38.1,21.1,30.49,ESE,113,0.0,4.0,50,0.00,,,0.00,HR-IXPWINDi_r2_v1.2.,2013-02-10 16:17:00,
2013-02-10 11:22:00,38.3,21.3,30.49,East,99,2.0,4.0,50,0.00,,,0.00,HR-IXPWINDi_r2_v1.2.,2013-02-10 16:22:00,
2013-02-10 11:27:00,38.5,21.5,30.49,SW,231,0.0,4.0,50,0.00,,,0.00,HR-IXPWINDi_r2_v1.2.,2013-02-10 16:27:00,
2013-02-10 11:33:00,38.8,20.8,30.49,East,92,0.0,3.0,48,0.00,,,0.00,HR-IXPWINDi_r2_v1.2.,2013-02-10 16:33:00,
2013-02-10 11:38:00,39.0,21.5,30.49,North,5,0.0,3.0,49,0.00,,,0.00,HR-IXPWINDi_r2_v1.2.,2013-02-10 16:38:00,
2013-02-10 11:43:00,39.3,20.8,30.48,NE,43,0.0,3.0,47,0.00,,,0.00,HR-IXPWINDi_r2_v1.2.,2013-02-10 16:43:00,
2013-02-10 11:48:00,39.3,20.8,30.47,NNE,24,2.0,3.0,47,0.00,,,0.00,HR-IXPWINDi_r2_v1.2.,2013-02-10 16:48:00,
2013-02-10 11:54:00,39.4,20.3,30.47,ESE,103,2.0,4.0,46,0.00,,,0.00,HR-IXPWINDi_r2_v1.2.,2013-02-10 16:54:00,
2013-02-10 11:59:00,40.0,21.9,30.46,North,11,2.0,4.0,48,0.00,,,0.00,HR-IXPWINDi_r2_v1.2.,2013-02-10 16:59:00,
2013-02-10 12:04:00,40.4,21.8,30.46,ENE,71,0.0,4.0,47,0.00,,,0.00,HR-IXPWINDi_r2_v1.2.,2013-02-10 17:04:00,
2013-02-10 12:09:00,40.6,21.4,30.46,NNE,15,3.0,4.0,46,0.00,,,0.00,HR-IXPWINDi_r2_v1.2.,2013-02-10 17:09:00,
2013-02-10 12:14:00,40.8,21.6,30.46,ENE,71,0.0,4.0,46,0.00,,,0.00,HR-IXPWINDi_r2_v1.2.,2013-02-10 17:14:00,
2013-02-10 12:19:00,41.3,22.1,30.45,NNE,14,2.0,3.0,46,0.00,,,0.00,HR-IXPWINDi_r2_v1.2.,2013-02-10 17:19:00,
2013-02-10 12:24:00,41.8,22.0,30.45,NNE,13,3.0,4.0,45,0.00,,,0.00,HR-IXPWINDi_r2_v1.2.,2013-02-10 17:24:00,
2013-02-10 12:29:00,42.1,22.3,30.45,NNE,26,0.0,4.0,45,0.00,,,0.00,HR-IXPWINDi_r2_v1.2.,2013-02-10 17:29:00,
2013-02-10 12:35:00,42.5,23.2,30.44,ESE,106,0.0,3.0,46,0.00,,,0.00,HR-IXPWINDi_r2_v1.2.,2013-02-10 17:35:00,
2013-02-10 12:40:00,42.8,21.8,30.43,East,97,6.0,6.0,43,0.00,,,0.00,HR-IXPWINDi_r2_v1.2.,2013-02-10 17:40:00,
2013-02-10 12:45:00,42.8,21.8,30.43,ENE,69,1.0,6.0,43,0.00,,,0.00,HR-IXPWINDi_r2_v1.2.,2013-02-10 17:45:00,
2013-02-10 12:50:00,42.7,22.3,30.43,SE,128,2.0,6.0,44,0.00,,,0.00,HR-IXPWINDi_r2_v1.2.,2013-02-10 17:50:00,
2013-02-10 12:56:00,42.9,23.0,30.42,NNE,12,2.0,5.0,45,0.00,,,0.00,HR-IXPWINDi_r2_v1.2.,2013-02-10 17:56:00,
2013-02-10 13:01:00,43.4,24.0,30.41,North,360,0.0,4.0,46,0.00,,,0.00,HR-IXPWINDi_r2_v1.2.,2013-02-10 18:01:00,
2013-02-10 13:06:00,43.6,23.7,30.41,NNE,15,0.0,5.0,45,0.00,,,0.00,HR-IXPWINDi_r2_v1.2.,2013-02-10 18:06:00,
2013-02-10 13:11:00,44.1,23.6,30.40,NNE,19,0.0,5.0,44,0.00,,,0.00,HR-IXPWINDi_r2_v1.2.,2013-02-10 18:11:00,
2013-02-10 13:17:00,44.9,23.7,30.40,NNE,26,0.0,4.0,43,0.00,,,0.00,HR-IXPWINDi_r2_v1.2.,2013-02-10 18:17:00,
2013-02-10 13:22:00,45.0,24.4,30.40,North,350,1.0,4.0,44,0.00,,,0.00,HR-IXPWINDi_r2_v1.2.,2013-02-10 18:22:00,
2013-02-10 13:27:00,45.0,22.7,30.39,North,5,1.0,4.0,41,0.00,,,0.00,HR-IXPWINDi_r2_v1.2.,2013-02-10 18:27:00,
2013-02-10 13:33:00,45.6,24.9,30.39,East,98,7.0,7.0,44,0.00,,,0.00,HR-IXPWINDi_r2_v1.2.,2013-02-10 18:33:00,
2013-02-10 13:38:00,46.0,23.6,30.39,East,86,3.0,7.0,41,0.00,,,0.00,HR-IXPWINDi_r2_v1.2.,2013-02-10 18:38:00,
2013-02-10 13:43:00,46.1,23.7,30.39,SE,146,0.0,7.0,41,0.00,,,0.00,HR-IXPWINDi_r2_v1.2.,2013-02-10 18:43:00,
2013-02-10 13:48:00,46.3,23.3,30.39,East,86,1.0,7.0,40,0.00,,,0.00,HR-IXPWINDi_r2_v1.2.,2013-02-10 18:48:00,
2013-02-10 13:53:00,46.1,23.1,30.39,ENE,65,3.0,7.0,40,0.00,,,0.00,HR-IXPWINDi_r2_v1.2.,2013-02-10 18:53:00,
2013-02-10 13:59:00,46.0,23.6,30.38,East,95,1.0,6.0,41,0.00,,,0.00,HR-IXPWINDi_r2_v1.2.,2013-02-10 18:59:00,
2013-02-10 14:04:00,46.0,21.8,30.38,East,97,2.0,6.0,38,0.00,,,0.00,HR-IXPWINDi_r2_v1.2.,2013-02-10 19:04:00,
2013-02-10 14:09:00,46.4,24.0,30.38,East,98,3.0,4.0,41,0.00,,,0.00,HR-IXPWINDi_r2_v1.2.,2013-02-10 19:09:00,
2013-02-10 14:14:00,47.0,25.1,30.37,ESE,109,0.0,6.0,42,0.00,,,0.00,HR-IXPWINDi_r2_v1.2.,2013-02-10 19:14:00,
2013-02-10 14:19:00,47.4,23.1,30.37,NE,55,0.0,6.0,38,0.00,,,0.00,HR-IXPWINDi_r2_v1.2.,2013-02-10 19:19:00,
2013-02-10 14:25:00,47.3,23.6,30.36,NNE,21,0.0,4.0,39,0.00,,,0.00,HR-IXPWINDi_r2_v1.2.,2013-02-10 19:25:00,
2013-02-10 14:30:00,47.4,23.7,30.36,ESE,121,1.0,4.0,39,0.00,,,0.00,HR-IXPWINDi_r2_v1.2.,2013-02-10 19:30:00,
2013-02-10 14:35:00,47.5,23.8,30.36,ENE,78,1.0,3.0,39,0.00,,,0.00,HR-IXPWINDi_r2_v1.2.,2013-02-10 19:35:00,
2013-02-10 14:40:00,47.7,24.5,30.34,ESE,119,2.0,5.0,40,0.00,,,0.00,HR-IXPWINDi_r2_v1.2.,2013-02-10 19:40:00,
2013-02-10 14:45:00,48.3,25.7,30.34,East,101,2.0,5.0,41,0.00,,,0.00,HR-IXPWINDi_r2_v1.2.,2013-02-10 19:45:00,
2013-02-10 14:50:00,48.6,24.7,30.34,South,183,0.0,6.0,39,0.00,,,0.00,HR-IXPWINDi_r2_v1.2.,2013-02-10 19:50:00,
2013-02-10 14:55:00,48.8,23.7,30.34,ESE,111,1.0,8.0,37,0.00,,,0.00,HR-IXPWINDi_r2_v1.2.,2013-02-10 19:55:00,
2013-02-10 15:00:00,48.8,24.3,30.34,ENE,58,2.0,8.0,38,0.00,,,0.00,HR-IXPWINDi_r2_v1.2.,2013-02-10 20:00:00,
2013-02-10 15:05:00,48.8,23.7,30.33,ENE,71,1.0,9.0,37,0.00,,,0.00,HR-IXPWINDi_r2_v1.2.,2013-02-10 20:05:00,
2013-02-10 15:11:00,48.8,24.3,30.34,ENE,68,1.0,9.0,38,0.00,,,0.00,HR-IXPWINDi_r2_v1.2.,2013-02-10 20:11:00,
2013-02-10 15:16:00,48.8,24.3,30.34,ENE,77,3.0,6.0,38,0.00,,,0.00,HR-IXPWINDi_r2_v1.2.,2013-02-10 20:16:00,
2013-02-10 15:21:00,48.8,25.5,30.34,NE,53,0.0,6.0,40,0.00,,,0.00,HR-IXPWINDi_r2_v1.2.,2013-02-10 20:21:00,
2013-02-10 15:26:00,48.8,24.9,30.34,ESE,113,2.0,8.0,39,0.00,,,0.00,HR-IXPWINDi_r2_v1.2.,2013-02-10 20:26:00,
2013-02-10 15:31:00,48.8,24.9,30.34,ESE,109,2.0,8.0,39,0.00,,,0.00,HR-IXPWINDi_r2_v1.2.,2013-02-10 20:31:00,
2013-02-10 15:37:00,48.7,23.6,30.34,East,98,0.0,4.0,37,0.00,,,0.00,HR-IXPWINDi_r2_v1.2.,2013-02-10 20:37:00,
2013-02-10 15:42:00,48.6,24.7,30.34,East,89,0.0,5.0,39,0.00,,,0.00,HR-IXPWINDi_r2_v1.2.,2013-02-10 20:42:00,
2013-02-10 15:47:00,48.6,24.7,30.34,ESE,115,2.0,5.0,39,0.00,,,0.00,HR-IXPWINDi_r2_v1.2.,2013-02-10 20:47:00,
2013-02-10 15:52:00,48.8,24.9,30.34,ENE,69,1.0,4.0,39,0.00,,,0.00,HR-IXPWINDi_r2_v1.2.,2013-02-10 20:52:00,
2013-02-10 15:58:00,49.1,24.6,30.34,East,93,6.0,6.0,38,0.00,,,0.00,HR-IXPWINDi_r2_v1.2.,2013-02-10 20:58:00,
2013-02-10 16:03:00,49.2,24.7,30.34,NE,47,2.0,6.0,38,0.00,,,0.00,HR-IXPWINDi_r2_v1.2.,2013-02-10 21:03:00,
2013-02-10 16:08:00,49.1,24.6,30.34,NE,52,1.0,6.0,38,0.00,,,0.00,HR-IXPWINDi_r2_v1.2.,2013-02-10 21:08:00,
2013-02-10 16:13:00,49.0,24.5,30.33,North,355,0.0,5.0,38,0.00,,,0.00,HR-IXPWINDi_r2_v1.2.,2013-02-10 21:13:00,
2013-02-10 16:18:00,48.7,24.8,30.33,East,82,3.0,5.0,39,0.00,,,0.00,HR-IXPWINDi_r2_v1.2.,2013-02-10 21:18:00,
2013-02-10 16:24:00,48.5,24.7,30.32,East,89,0.0,5.0,39,0.00,,,0.00,HR-IXPWINDi_r2_v1.2.,2013-02-10 21:24:00,
2013-02-10 16:29:00,48.4,24.6,30.32,East,88,0.0,5.0,39,0.00,,,0.00,HR-IXPWINDi_r2_v1.2.,2013-02-10 21:29:00,
2013-02-10 16:34:00,48.2,25.0,30.32,SE,132,0.0,5.0,40,0.00,,,0.00,HR-IXPWINDi_r2_v1.2.,2013-02-10 21:34:00,
2013-02-10 16:40:00,48.0,24.8,30.32,East,101,0.0,3.0,40,0.00,,,0.00,HR-IXPWINDi_r2_v1.2.,2013-02-10 21:40:00,
2013-02-10 16:45:00,47.8,25.2,30.32,ESE,105,0.0,3.0,41,0.00,,,0.00,HR-IXPWINDi_r2_v1.2.,2013-02-10 21:45:00,
2013-02-10 16:50:00,47.7,25.1,30.32,East,101,1.0,3.0,41,0.00,,,0.00,HR-IXPWINDi_r2_v1.2.,2013-02-10 21:50:00,
2013-02-10 16:55:00,47.5,25.5,30.31,ESE,102,1.0,2.0,42,0.00,,,0.00,HR-IXPWINDi_r2_v1.2.,2013-02-10 21:55:00,
2013-02-10 17:00:00,47.3,24.2,30.32,ESE,111,0.0,3.0,40,0.00,,,0.00,HR-IXPWINDi_r2_v1.2.,2013-02-10 22:00:00,
2013-02-10 17:05:00,47.2,25.3,30.32,ESE,111,1.0,3.0,42,0.00,,,0.00,HR-IXPWINDi_r2_v1.2.,2013-02-10 22:05:00,
2013-02-10 17:11:00,47.1,25.2,30.32,ESE,111,0.0,2.0,42,0.00,,,0.00,HR-IXPWINDi_r2_v1.2.,2013-02-10 22:11:00,
2013-02-10 17:16:00,47.0,25.1,30.32,ESE,111,0.0,2.0,42,0.00,,,0.00,HR-IXPWINDi_r2_v1.2.,2013-02-10 22:16:00,
2013-02-10 17:21:00,46.8,24.9,30.32,ESE,111,0.0,1.0,42,0.00,,,0.00,HR-IXPWINDi_r2_v1.2.,2013-02-10 22:21:00,
2013-02-10 17:26:00,46.7,24.8,30.32,ESE,111,0.0,1.0,42,0.00,,,0.00,HR-IXPWINDi_r2_v1.2.,2013-02-10 22:26:00,
2013-02-10 17:31:00,46.6,24.7,30.32,ESE,111,0.0,1.0,42,0.00,,,0.00,HR-IXPWINDi_r2_v1.2.,2013-02-10 22:31:00,
2013-02-10 17:37:00,46.4,25.1,30.32,ESE,111,0.0,0.0,43,0.00,,,0.00,HR-IXPWINDi_r2_v1.2.,2013-02-10 22:37:00,
2013-02-10 17:42:00,46.2,26.0,30.31,ESE,111,0.0,0.0,45,0.00,,,0.00,HR-IXPWINDi_r2_v1.2.,2013-02-10 22:42:00,
2013-02-10 17:47:00,45.8,27.2,30.32,ESE,111,0.0,0.0,48,0.00,,,0.00,HR-IXPWINDi_r2_v1.2.,2013-02-10 22:47:00,
2013-02-10 17:52:00,45.5,27.4,30.31,ESE,111,0.0,0.0,49,0.00,,,0.00,HR-IXPWINDi_r2_v1.2.,2013-02-10 22:52:00,
2013-02-10 17:57:00,45.1,27.6,30.31,ESE,111,0.0,0.0,50,0.00,,,0.00,HR-IXPWINDi_r2_v1.2.,2013-02-10 22:57:00,
2013-02-10 18:02:00,44.7,27.2,30.32,ESE,111,0.0,0.0,50,0.00,,,0.00,HR-IXPWINDi_r2_v1.2.,2013-02-10 23:02:00,
2013-02-10 18:08:00,44.4,26.9,30.31,ESE,111,0.0,0.0,50,0.00,,,0.00,HR-IXPWINDi_r2_v1.2.,2013-02-10 23:08:00,
2013-02-10 18:13:00,44.1,27.6,30.32,ESE,111,0.0,0.0,52,0.00,,,0.00,HR-IXPWINDi_r2_v1.2.,2013-02-10 23:13:00,
2013-02-10 18:18:00,43.9,27.9,30.32,ESE,111,0.0,0.0,53,0.00,,,0.00,HR-IXPWINDi_r2_v1.2.,2013-02-10 23:18:00,
2013-02-10 18:23:00,43.6,28.0,30.32,ESE,111,0.0,0.0,54,0.00,,,0.00,HR-IXPWINDi_r2_v1.2.,2013-02-10 23:23:00,
2013-02-10 18:28:00,43.2,27.2,30.32,ESE,111,0.0,0.0,53,0.00,,,0.00,HR-IXPWINDi_r2_v1.2.,2013-02-10 23:28:00,
2013-02-10 18:33:00,43.1,28.0,30.33,ESE,111,0.0,0.0,55,0.00,,,0.00,HR-IXPWINDi_r2_v1.2.,2013-02-10 23:33:00,
2013-02-10 18:38:00,42.8,27.3,30.33,ESE,111,0.0,0.0,54,0.00,,,0.00,HR-IXPWINDi_r2_v1.2.,2013-02-10 23:38:00,
2013-02-10 18:43:00,42.6,27.1,30.33,ESE,111,0.0,0.0,54,0.00,,,0.00,HR-IXPWINDi_r2_v1.2.,2013-02-10 23:43:00,
2013-02-10 18:49:00,42.5,27.0,30.33,ESE,111,0.0,0.0,54,0.00,,,0.00,HR-IXPWINDi_r2_v1.2.,2013-02-10 23:49:00,
2013-02-10 18:54:00,42.3,27.3,30.33,ESE,111,0.0,0.0,55,0.00,,,0.00,HR-IXPWINDi_r2_v1.2.,2013-02-10 23:54:00,
2013-02-10 18:59:00,42.2,28.9,30.32,ESE,111,0.0,0.0,59,0.00,,,0.00,HR-IXPWINDi_r2_v1.2.,2013-02-10 23:59:00,
2013-02-10 19:04:00,42.0,28.3,30.33,ESE,111,0.0,0.0,58,0.00,,,0.00,HR-IXPWINDi_r2_v1.2.,2013-02-11 00:04:00,
2013-02-10 19:09:00,41.8,28.5,30.33,ESE,111,0.0,0.0,59,0.00,,,0.00,HR-IXPWINDi_r2_v1.2.,2013-02-11 00:09:00,
2013-02-10 19:15:00,41.6,29.1,30.33,ESE,111,0.0,0.0,61,0.00,,,0.00,HR-IXPWINDi_r2_v1.2.,2013-02-11 00:15:00,
2013-02-10 19:20:00,41.5,27.8,30.34,ESE,111,1.0,1.0,58,0.00,,,0.00,HR-IXPWINDi_r2_v1.2.,2013-02-11 00:20:00,
2013-02-10 19:25:00,41.5,27.0,30.34,ESE,111,0.0,1.0,56,0.00,,,0.00,HR-IXPWINDi_r2_v1.2.,2013-02-11 00:25:00,
2013-02-10 19:30:00,41.4,27.7,30.34,ESE,111,0.0,2.0,58,0.00,,,0.00,HR-IXPWINDi_r2_v1.2.,2013-02-11 00:30:00,
2013-02-10 19:36:00,41.4,28.1,30.33,ESE,111,0.0,2.0,59,0.00,,,0.00,HR-IXPWINDi_r2_v1.2.,2013-02-11 00:36:00,
2013-02-10 19:41:00,41.4,27.7,30.33,ESE,109,0.0,1.0,58,0.00,,,0.00,HR-IXPWINDi_r2_v1.2.,2013-02-11 00:41:00,
2013-02-10 19:46:00,41.4,27.7,30.33,East,86,0.0,2.0,58,0.00,,,0.00,HR-IXPWINDi_r2_v1.2.,2013-02-11 00:46:00,
2013-02-10 19:51:00,41.4,27.7,30.33,East,86,0.0,2.0,58,0.00,,,0.00,HR-IXPWINDi_r2_v1.2.,2013-02-11 00:51:00,
2013-02-10 19:57:00,41.4,26.9,30.33,East,86,0.0,1.0,56,0.00,,,0.00,HR-IXPWINDi_r2_v1.2.,2013-02-11 00:57:00,
2013-02-10 20:02:00,41.4,28.5,30.33,East,86,0.0,1.0,60,0.00,,,0.00,HR-IXPWINDi_r2_v1.2.,2013-02-11 01:02:00,
2013-02-10 20:07:00,41.4,28.5,30.33,East,86,0.0,1.0,60,0.00,,,0.00,HR-IXPWINDi_r2_v1.2.,2013-02-11 01:07:00,
2013-02-10 20:13:00,41.4,28.5,30.33,East,86,0.0,1.0,60,0.00,,,0.00,HR-IXPWINDi_r2_v1.2.,2013-02-11 01:13:00,
2013-02-10 20:18:00,41.4,28.5,30.33,East,86,0.0,0.0,60,0.00,,,0.00,HR-IXPWINDi_r2_v1.2.,2013-02-11 01:18:00,
2013-02-10 20:23:00,41.4,28.1,30.33,East,86,0.0,0.0,59,0.00,,,0.00,HR-IXPWINDi_r2_v1.2.,2013-02-11 01:23:00,
2013-02-10 20:28:00,41.4,27.3,30.33,East,86,0.0,0.0,57,0.00,,,0.00,HR-IXPWINDi_r2_v1.2.,2013-02-11 01:28:00,
2013-02-10 20:33:00,41.4,27.7,30.33,East,86,0.0,0.0,58,0.00,,,0.00,HR-IXPWINDi_r2_v1.2.,2013-02-11 01:33:00,
2013-02-10 20:38:00,41.5,27.0,30.33,East,86,0.0,0.0,56,0.00,,,0.00,HR-IXPWINDi_r2_v1.2.,2013-02-11 01:38:00,
2013-02-10 20:44:00,41.6,27.1,30.32,East,86,0.0,0.0,56,0.00,,,0.00,HR-IXPWINDi_r2_v1.2.,2013-02-11 01:44:00,
2013-02-10 20:49:00,41.6,28.3,30.32,East,86,0.0,0.0,59,0.00,,,0.00,HR-IXPWINDi_r2_v1.2.,2013-02-11 01:49:00,
2013-02-10 20:54:00,41.6,29.5,30.32,East,86,0.0,1.0,62,0.00,,,0.00,HR-IXPWINDi_r2_v1.2.,2013-02-11 01:54:00,
2013-02-10 20:59:00,41.4,30.5,30.32,East,86,0.0,1.0,65,0.00,,,0.00,HR-IXPWINDi_r2_v1.2.,2013-02-11 01:59:00,
2013-02-10 21:04:00,41.2,31.8,30.32,East,86,0.0,1.0,69,0.00,,,0.00,HR-IXPWINDi_r2_v1.2.,2013-02-11 02:04:00,
2013-02-10 21:09:00,40.9,33.2,30.32,East,86,0.0,1.0,74,0.00,,,0.00,HR-IXPWINDi_r2_v1.2.,2013-02-11 02:09:00,
2013-02-10 21:14:00,40.5,34.5,30.32,East,86,0.0,1.0,79,0.00,,,0.01,HR-IXPWINDi_r2_v1.2.,2013-02-11 02:14:00,
2013-02-10 21:19:00,40.1,35.0,30.31,East,86,0.0,0.0,82,0.10,,,0.02,HR-IXPWINDi_r2_v1.2.,2013-02-11 02:19:00,
2013-02-10 21:25:00,39.7,35.5,30.31,East,86,0.0,1.0,85,0.09,,,0.03,HR-IXPWINDi_r2_v1.2.,2013-02-11 02:25:00,
2013-02-10 21:30:00,39.4,35.8,30.31,East,86,0.0,1.0,87,0.09,,,0.03,HR-IXPWINDi_r2_v1.2.,2013-02-11 02:30:00,
2013-02-10 21:35:00,39.2,35.9,30.32,East,86,0.0,0.0,88,0.07,,,0.04,HR-IXPWINDi_r2_v1.2.,2013-02-11 02:35:00,
2013-02-10 21:40:00,39.1,36.1,30.32,East,86,0.0,0.0,89,0.07,,,0.04,HR-IXPWINDi_r2_v1.2.,2013-02-11 02:40:00,
2013-02-10 21:45:00,38.9,36.2,30.31,East,86,1.0,1.0,90,0.05,,,0.05,HR-IXPWINDi_r2_v1.2.,2013-02-11 02:45:00,
2013-02-10 21:50:00,38.8,36.4,30.30,East,86,1.0,1.0,91,0.05,,,0.05,HR-IXPWINDi_r2_v1.2.,2013-02-11 02:50:00,
2013-02-10 21:55:00,38.7,36.5,30.30,East,86,0.0,1.0,92,0.05,,,0.05,HR-IXPWINDi_r2_v1.2.,2013-02-11 02:55:00,
2013-02-10 22:00:00,38.7,36.5,30.30,East,86,0.0,1.0,92,0.05,,,0.06,HR-IXPWINDi_r2_v1.2.,2013-02-11 03:00:00,
2013-02-10 22:06:00,38.6,36.4,30.29,East,86,0.0,0.0,92,0.05,,,0.06,HR-IXPWINDi_r2_v1.2.,2013-02-11 03:06:00,
2013-02-10 22:11:00,38.6,36.7,30.29,East,86,0.0,0.0,93,0.04,,,0.06,HR-IXPWINDi_r2_v1.2.,2013-02-11 03:11:00,
2013-02-10 22:16:00,38.5,36.6,30.29,East,86,0.0,0.0,93,0.00,,,0.06,HR-IXPWINDi_r2_v1.2.,2013-02-11 03:16:00,
2013-02-10 22:21:00,38.4,36.5,30.30,East,86,0.0,0.0,93,0.00,,,0.06,HR-IXPWINDi_r2_v1.2.,2013-02-11 03:21:00,
2013-02-10 22:27:00,38.4,36.8,30.29,East,86,0.0,1.0,94,0.00,,,0.06,HR-IXPWINDi_r2_v1.2.,2013-02-11 03:27:00,
2013-02-10 22:32:00,38.5,36.9,30.29,East,86,0.0,1.0,94,0.00,,,0.06,HR-IXPWINDi_r2_v1.2.,2013-02-11 03:32:00,
2013-02-10 22:37:00,38.4,36.8,30.29,East,86,0.0,1.0,94,0.00,,,0.06,HR-IXPWINDi_r2_v1.2.,2013-02-11 03:37:00,
2013-02-10 22:42:00,38.4,36.8,30.29,East,86,0.0,0.0,94,0.00,,,0.06,HR-IXPWINDi_r2_v1.2.,2013-02-11 03:42:00,
2013-02-10 22:48:00,38.4,36.8,30.29,East,86,0.0,0.0,94,0.00,,,0.06,HR-IXPWINDi_r2_v1.2.,2013-02-11 03:48:00,
2013-02-10 22:53:00,38.4,36.8,30.28,East,86,0.0,1.0,94,0.00,,,0.06,HR-IXPWINDi_r2_v1.2.,2013-02-11 03:53:00,
2013-02-10 22:58:00,38.4,36.8,30.28,East,86,0.0,1.0,94,0.00,,,0.06,HR-IXPWINDi_r2_v1.2.,2013-02-11 03:58:00,
2013-02-10 23:03:00,38.4,36.8,30.28,East,86,0.0,1.0,94,0.00,,,0.06,HR-IXPWINDi_r2_v1.2.,2013-02-11 04:03:00,
2013-02-10 23:08:00,38.3,36.7,30.27,East,86,0.0,0.0,94,0.00,,,0.06,HR-IXPWINDi_r2_v1.2.,2013-02-11 04:08:00,
2013-02-10 23:13:00,38.3,36.9,30.27,East,86,0.0,0.0,95,0.00,,,0.06,HR-IXPWINDi_r2_v1.2.,2013-02-11 04:13:00,
2013-02-10 23:18:00,38.3,36.9,30.27,East,86,0.0,0.0,95,0.00,,,0.06,HR-IXPWINDi_r2_v1.2.,2013-02-11 04:18:00,
2013-02-10 23:24:00,38.3,36.9,30.26,East,86,0.0,0.0,95,0.00,,,0.06,HR-IXPWINDi_r2_v1.2.,2013-02-11 04:24:00,
2013-02-10 23:29:00,38.3,36.9,30.26,East,86,0.0,0.0,95,0.00,,,0.06,HR-IXPWINDi_r2_v1.2.,2013-02-11 04:29:00,
2013-02-10 23:34:00,38.2,36.8,30.26,East,86,0.0,0.0,95,0.00,,,0.06,HR-IXPWINDi_r2_v1.2.,2013-02-11 04:34:00,
2013-02-10 23:39:00,38.2,36.8,30.26,East,86,0.0,0.0,95,0.00,,,0.06,HR-IXPWINDi_r2_v1.2.,2013-02-11 04:39:00,
2013-02-10 23:44:00,38.2,36.8,30.26,East,86,0.0,0.0,95,0.00,,,0.06,HR-IXPWINDi_r2_v1.2.,2013-02-11 04:44:00,
2013-02-10 23:50:00,38.2,36.8,30.26,East,86,0.0,0.0,95,0.00,,,0.06,HR-IXPWINDi_r2_v1.2.,2013-02-11 04:50:00,
2013-02-10 23:55:00,38.1,36.8,30.25,East,86,0.0,0.0,95,0.00,,,0.06,HR-IXPWINDi_r2_v1.2.,2013-02-11 04:55:00,